Aurora, OR

1:47 AM PDT on August 19, 2017 (GMT -0700)
Aurora State

Weather History for KUAO - February, 2014

Change the Weather History Date:

Wednesday, February 19, 2014

  Actual Average Record
Temperature  
Mean Temperature 42 °F -  
Max Temperature 48 °F - 58 °F (2015)
Min Temperature 36 °F - 26 °F (2006)
Degree Days  
Heating Degree Days 23    
Month to date heating degree days 484  
Since 1 July heating degree days 3260  
Cooling Degree Days 0    
Month to date cooling degree days 0  
Year to date cooling degree days 0  
Moisture  
Dew Point 40 °F    
Average Humidity 86    
Maximum Humidity 100    
Minimum Humidity 71    
Precipitation  
Precipitation 0.20 in - 0.46 in (1997)
Month to date precipitation 5.07  
Year to date precipitation 7.64  
Sea Level Pressure  
Sea Level Pressure 30.19 in    
Wind  
Wind Speed 8 mph (SSW)    
Max Wind Speed 18 mph    
Max Gust Speed 26 mph    
Visibility 9 miles    
Events Rain    
T = Trace of Precipitation, MM = Missing Value Source: NWS Daily Summary

Daily Weather History Graph

Daily Weather History Graph

Search for Another Location

Airport or City:

Trip Planner

Search our weather history database for the weather conditions in past years. The results will help you decide how hot, cold, wet, or windy it might be!

Date:

Astronomy

Feb. 19, 2014 Rise Set
Actual Time 7:05 AM PST 5:44 PM PST
Civil Twilight 6:35 AM PST 6:14 PM PST
Nautical Twilight 6:01 AM PST 6:48 PM PST
Astronomical Twilight 5:27 AM PST 7:23 PM PST
Moon 10:59 PM PST 9:00 AM PST
Length of Visible Light 11h 38m
Length of Day
10h 38m
Waning Gibbous, 79% of the Moon is Illuminated
Feb 19
Waning Gibbous
Feb 22
Last Quarter
Mar 1
New
Mar 8
First Quarter
Mar 16
Full

Hourly Weather History & Observations

Time (PST) Temp. Windchill Dew Point Humidity Pressure Visibility Wind Dir Wind Speed Gust Speed Precip Events Conditions
12:53 AM 39.9 °F 33.4 °F 37.9 °F 93% 30.04 in 10.0 mi SSW 10.4 mph 19.6 mph 0.00 in   Mostly Cloudy
1:45 AM 39.0 °F 34.8 °F 37.9 °F 96% 30.05 in 7.0 mi Variable 5.8 mph - 0.02 in Rain Light Rain
1:53 AM 39.0 °F 35.7 °F 37.9 °F 96% 30.06 in 7.0 mi SW 4.6 mph - 0.03 in Rain Light Rain
2:07 AM 39.0 °F 34.0 °F 37.0 °F 93% 30.05 in 10.0 mi SSW 6.9 mph - 0.00 in Rain Light Rain
2:53 AM 39.9 °F 33.4 °F 37.0 °F 89% 30.07 in 10.0 mi SSW 10.4 mph - 0.00 in   Mostly Cloudy
3:15 AM 39.9 °F 33.4 °F 37.0 °F 89% 30.07 in 10.0 mi SSW 10.4 mph - N/A   Overcast
3:38 AM 39.9 °F 33.9 °F 37.0 °F 89% 30.07 in 10.0 mi South 9.2 mph 19.6 mph 0.00 in Rain Light Rain
4:53 AM 37.0 °F 30.4 °F 37.0 °F 100% 30.11 in 10.0 mi South 9.2 mph - 0.04 in   Partly Cloudy
5:39 AM 37.9 °F 31.5 °F 37.9 °F 100% 30.13 in 10.0 mi South 9.2 mph - 0.00 in Rain Light Rain
5:53 AM 37.9 °F 32.1 °F 37.9 °F 100% 30.14 in 10.0 mi South 8.1 mph - 0.00 in   Mostly Cloudy
6:50 AM 37.4 °F 31.4 °F 37.4 °F 100% 30.15 in 10.0 mi SSE 8.1 mph - N/A   Partly Cloudy
6:53 AM 37.0 °F 30.4 °F 37.0 °F 100% 30.15 in 10.0 mi South 9.2 mph - N/A   Partly Cloudy
7:53 AM 37.0 °F - 37.0 °F 100% 30.18 in 10.0 mi Calm Calm - N/A   Partly Cloudy
8:53 AM 39.9 °F 36.7 °F 39.0 °F 97% 30.21 in 8.0 mi WSW 4.6 mph - 0.01 in Rain Light Rain
9:53 AM 42.1 °F 36.1 °F 42.1 °F 100% 30.22 in 10.0 mi South 10.4 mph - 0.00 in   Overcast
10:53 AM 44.1 °F 38.6 °F 43.0 °F 96% 30.24 in 10.0 mi South 10.4 mph - N/A   Scattered Clouds
11:14 AM 45.0 °F 40.1 °F 43.0 °F 93% 30.23 in 10.0 mi South 9.2 mph - N/A   Mostly Cloudy
11:43 AM 45.0 °F 41.2 °F 42.1 °F 90% 30.24 in 10.0 mi SSW 6.9 mph 16.1 mph N/A   Overcast
11:53 AM 45.0 °F 42.6 °F 42.1 °F 90% 30.24 in 9.0 mi SSW 4.6 mph - 0.00 in Rain Light Rain
12:05 PM 44.1 °F 39.0 °F 42.1 °F 93% 30.24 in 9.0 mi SSW 9.2 mph - 0.01 in Rain Light Rain
12:40 PM 44.1 °F 37.4 °F 43.0 °F 96% 30.23 in 10.0 mi South 13.8 mph - 0.01 in   Scattered Clouds
12:53 PM 44.1 °F 39.5 °F 42.1 °F 93% 30.23 in 10.0 mi South 8.1 mph - 0.01 in Rain Light Rain
1:53 PM 46.9 °F - 41.0 °F 80% 30.23 in 10.0 mi South 12.7 mph - 0.00 in   Mostly Cloudy
2:53 PM 48.0 °F - 39.9 °F 74% 30.24 in 10.0 mi SW 8.1 mph - 0.00 in   Mostly Cloudy
3:53 PM 45.0 °F 39.3 °F 39.9 °F 82% 30.23 in 10.0 mi South 11.5 mph - N/A   Overcast
4:19 PM 42.1 °F 38.4 °F 37.9 °F 85% 30.24 in 1.8 mi West 5.8 mph 21.9 mph 0.06 in Rain Heavy Rain
4:29 PM 42.1 °F 40.2 °F 39.0 °F 89% 30.23 in 3.0 mi Variable 3.5 mph - 0.07 in Rain Light Rain
4:53 PM 42.1 °F 39.2 °F 41.0 °F 96% 30.25 in 9.0 mi South 4.6 mph - 0.08 in Rain Light Rain
5:53 PM 44.1 °F 41.5 °F 42.1 °F 93% 30.25 in 10.0 mi SSW 4.6 mph - 0.02 in   Overcast
6:53 PM 42.1 °F 39.2 °F 41.0 °F 96% 30.26 in 8.0 mi SW 4.6 mph - 0.01 in Rain Light Rain
7:19 PM 42.1 °F 37.7 °F 41.0 °F 96% 30.25 in 10.0 mi South 6.9 mph - 0.00 in   Overcast
7:53 PM 43.0 °F 36.8 °F 41.0 °F 93% 30.25 in 10.0 mi SSW 11.5 mph - 0.00 in   Overcast
8:53 PM 43.0 °F 38.8 °F 41.0 °F 93% 30.25 in 10.0 mi SSW 6.9 mph - N/A   Overcast
9:53 PM 43.0 °F 35.7 °F 41.0 °F 93% 30.25 in 10.0 mi South 15.0 mph 20.7 mph N/A   Overcast
10:53 PM 43.0 °F 34.8 °F 39.9 °F 89% 30.24 in 10.0 mi South 18.4 mph 24.2 mph N/A   Overcast
11:53 PM 43.0 °F 36.8 °F 41.0 °F 93% 30.24 in 10.0 mi South 11.5 mph - N/A   Overcast